User: anonymous   Login
Location: Fontevrault
(47.1823°N, 0.0493°E)
Time: 02:11:55
(UTC+00:00)
Language:

Cosmos 2100 Rocket - Orbit

View from above orbital plane
View from above orbital plane
View from above satellite
View from above satellite

Ground track
Ground track

The orbit data is extracted from the following two-line orbital elements,

1 20805U 90083B   21260.52927313  .00000037  00000-0  22894-4 0  9997
2 20805  82.9406 347.6099 0030921  17.0706 354.0614 13.75926445556735
Epoch (UTC): 17 September 2021 12:42:09
Eccentricity: 0.0030921
inclination: 82.9406°
perigee height: 955 km
apogee height: 1001 km
right ascension of ascending node: 347.6099°
argument of perigee: 17.0706°
revolutions per day: 13.75926445
mean anomaly at epoch: 354.0614°
orbit number at epoch: 55673

The dashed part of the orbit path shows where the satellite is in the earth's shadow,  

DLR